Погода в Задорино

Россия / Костромская область     58°20′39″N   43°20′30″E
темп.,
°C
ветер,
м/с
пор.,
м/с
влажн.,
%
обл.,
%
осадки,
мм/ч
давл.,
гПа
погр.,
м
27 июня, пн
пн2700:00+17зюз25831 0.0 101787
03:00+19з4138267 0.0 1016361
06:00+19з39893 0.6 1015288
09:00+26сз47550 0.8 1014893
12:00+28ссз594211 0.0 10142681
15:00+27с694526 0.0 10152329
18:00+23с510481 0.0 10161262
21:00+15ссв38645 0.0 1018267
28 июня, вт
вт2800:00+10с228166 0.0 102036
03:00+8ссв258945 0.0 102196
06:00+11ссв36650 0.0 1022370
09:00+14ссв46470 0.0 10221327
12:00+17с56375 0.0 10231731
15:00+18с563276 0.0 10221897
18:00+18ссв46415 0.0 10221927
21:00+11с25642 0.0 102476
29 июня, ср
ср2900:00+9с23712 0.0 102442
03:00+7с23740 0.0 102559
06:00+12с25604 0.0 1025194
09:00+17с35385 0.0 10241288
12:00+20с34311 0.0 10231833
15:00+22ссз34295 0.0 10212079
18:00+20ссз3642100 0.0 1020759
21:00+14сз2663100 0.0 1019100
30 июня, чт
чт3000:00+11сз356980 0.0 101972
03:00+9сз37745 0.0 1018135
06:00+13ссз3116139 0.0 1018336
09:00+18с58422 0.0 1017922
12:00+21с58340 0.0 10171979
15:00+22с5831100 0.0 10172218
18:00+20ссв4742100 0.0 10171897
21:00+14ссв23670 0.0 101943
1 июля, пт
пт100:00+10ссв22790 0.0 102018
03:00+9с22775 0.0 102122
06:00+13с23625 0.0 1021158
09:00+19с24395 0.0 10211111
12:00+23ссз343036 0.0 10201687
15:00+25ссз352941 0.0 10181909
18:00+24ссз35414 0.0 1017644
21:00+17з22630 0.0 101732